This demonstration page uses our WeatherBlox Daily Observations layout. Learn more.

Left ArrowRight Arrow

39.08367, -84.50855

Hourly Observations for April 12, 2018

Temp ( °F °C ) Dew Point ( °F °C ) Humidity (%) Winds ( mph kmh ) Pressure ( in mb ) Visibility ( mi km ) Precip ( " mm )
12:53 am 00:53 Mostly Cloudy 56 13.3 40 4.4 55 55 S 8 13 30.01 1016 10 16 N/A
1:53 am 01:53 Cloudy 55 12.8 40 4.4 57 57 S 7 11 29.99 1016 10 16 N/A
2:53 am 02:53 Clear 53 11.7 41 5 64 64 S 10 17 29.98 1015 10 16 N/A
3:53 am 03:53 Mostly Clear 54 12.2 40 4.4 59 59 S 9 15 29.97 1015 10 16 N/A
4:53 am 04:53 Clear 55 12.8 39 3.9 55 55 SSW 10 17 29.95 1014 10 16 N/A
5:53 am 05:53 Clear 56 13.3 39 3.9 53 53 SSW 13 20 29.95 1014 10 16 N/A
6:53 am 06:53 Clear 55 12.8 39 3.9 55 55 SSW 9 15 29.95 1014 10 16 N/A
7:53 am 07:53 Sunny 54 12.2 40 4.4 59 59 SSW 8 13 29.95 1014 10 16 N/A
8:53 am 08:53 Sunny 58 14.4 41 5 53 53 SSW 12 19 29.94 1014 10 16 N/A
9:53 am 09:53 Sunny 64 17.8 41 5 43 43 SW 20 31 29.92 1013 10 16 N/A
10:53 am 10:53 Sunny 69 20.6 44 6.7 41 41 SW 20 31 29.90 1012 10 16 N/A
11:53 am 11:53 Sunny 71 21.7 45 7.2 39 39 SSW 25 41 29.87 1012 10 16 N/A
12:53 pm 12:53 Sunny 75 23.9 47 8.3 37 37 SW 23 37 29.85 1011 10 16 N/A
1:53 pm 13:53 Sunny 76 24.4 47 8.3 36 36 SSW 24 39 29.81 1010 10 16 N/A
2:53 pm 14:53 Sunny 77 25 46 7.8 33 33 SSW 23 37 29.80 1009 10 16 N/A
3:53 pm 15:53 Sunny 78 25.6 46 7.8 32 32 SW 23 37 29.79 1009 10 16 N/A
4:53 pm 16:53 Sunny 79 26.1 46 7.8 31 31 SW 23 37 29.77 1008 10 16 N/A
5:53 pm 17:53 Sunny 78 25.6 45 7.2 31 31 SSW 24 39 29.78 1008 10 16 N/A
6:53 pm 18:53 Sunny 77 25 44 6.7 31 31 SSW 18 30 29.77 1008 10 16 N/A
7:53 pm 19:53 Sunny 73 22.8 43 6.1 34 34 SSW 14 22 29.78 1009 10 16 N/A
8:53 pm 20:53 Clear 68 20 43 6.1 40 40 SSW 12 19 29.78 1009 10 16 N/A
9:53 pm 21:53 Clear 67 19.4 44 6.7 44 44 S 9 15 29.79 1009 10 16 N/A
10:53 pm 22:53 Clear 68 20 43 6.1 40 40 SSW 13 20 29.80 1009 10 16 N/A
11:53 pm 23:53 Clear 69 20.6 43 6.1 39 39 SSW 17 28 29.78 1009 10 16 N/A

Powered by AerisWeather